SITRO-AIS 12 (SMIRENNIY)

Last updated on Mon Sep 21 2026 00:03:45 GMT+0000 (Coordinated Universal Time)

1 57204U 23091AQ 26263.51914560 .00015948 00000+0 37962-3 0 9999 2 57204 97.5002 336.7051 0007002 87.7760 272.4288 15.41679698179446
UTC large
Height (km)
Speed (km/s)
/
Latitude / Longitude
Inclination (degrees)
Orbital Period (minutes)
Azimuth
Elevation
Range (km)
Doppler Factor

Next 0 passes for location: London (51.5072 / 0.1276)

No passes found over London.
SITRO-AIS 12 (SMIRENNIY)